When you browse on this site, cookies collect data to enhance your experience and personalize the content and advertising you see.
Visit our Privacy Policy to learn more. By continuing to use the site, you agree to this use of cookies and data.
  • En España
  • Lista de países
  • Para 7 días
  • Temperatura del agua
  • El tiempo en el mapa
  • Informadores
  • user-avatar
    Iniciar sesión

    Tiempo cada hora Andora

    Hoy, 30 Mayo, Sábado

    Tiempo Temperatura Precipitaciones Viento Presión Humedad
    00:00 +9°C° 0 mm 1 mps 624 mmHg 91%
    01:00 +9°C° 0 mm 1 mps 624 mmHg 90%
    02:00 +8°C° 0 mm 1 mps 624 mmHg 90%
    03:00 +8°C° 0 mm 1 mps 624 mmHg 90%
    04:00 +9°C° 0 mm 1 mps 624 mmHg 89%
    05:00 +10°C° 0 mm 1 mps 624 mmHg 88%
    06:00 +10°C° 0 mm 0 mps 625 mmHg 87%
    07:00 +13°C° 0 mm 1 mps 625 mmHg 79%
    08:00 +14°C° 0 mm 1 mps 626 mmHg 71%
    09:00 +16°C° 0 mm 1 mps 626 mmHg 63%
    10:00 +16°C° 0.2 mm 2 mps 626 mmHg 63%
    11:00 +17°C° 0.2 mm 2 mps 626 mmHg 63%
    12:00 +17°C° 0 mm 2 mps 626 mmHg 61%
    13:00 +17°C° 0.7 mm 2 mps 626 mmHg 64%
    14:00 +18°C° 0.7 mm 1 mps 626 mmHg 67%
    15:00 +16°C° 0.7 mm 1 mps 625 mmHg 70%
    16:00 +15°C° 0.5 mm 1 mps 625 mmHg 75%
    17:00 +15°C° 0.5 mm 1 mps 625 mmHg 79%
    18:00 +14°C° 0.5 mm 1 mps 624 mmHg 84%
    19:00 +13°C° 0.1 mm 1 mps 624 mmHg 87%
    20:00 +11°C° 0.1 mm 1 mps 624 mmHg 91%
    21:00 +9°C° 0.1 mm 0 mps 623 mmHg 95%
    22:00 +10°C° 0 mm 1 mps 623 mmHg 94%
    23:00 +9°C° 0 mm 1 mps 623 mmHg 93%

    Mañana, 31 Mayo, Domingo

    Tiempo Temperatura Precipitaciones Viento Presión Humedad
    00:00 +9°C° 0 mm 1 mps 623 mmHg 92%
    01:00 +9°C° 0 mm 1 mps 622 mmHg 91%
    02:00 +9°C° 0 mm 1 mps 622 mmHg 89%
    03:00 +8°C° 0 mm 1 mps 622 mmHg 88%
    04:00 +9°C° 0 mm 1 mps 622 mmHg 87%
    05:00 +10°C° 0 mm 1 mps 623 mmHg 86%
    06:00 +11°C° 0 mm 1 mps 623 mmHg 85%
    07:00 +13°C° 0 mm 1 mps 624 mmHg 74%
    08:00 +15°C° 0 mm 1 mps 625 mmHg 64%
    09:00 +19°C° 0 mm 1 mps 626 mmHg 54%
    10:00 +19°C° 0 mm 1 mps 626 mmHg 50%
    11:00 +19°C° 0 mm 2 mps 626 mmHg 47%
    12:00 +20°C° 0 mm 2 mps 626 mmHg 44%
    13:00 +19°C° 0.6 mm 2 mps 626 mmHg 52%
    14:00 +18°C° 0.6 mm 2 mps 625 mmHg 60%
    15:00 +19°C° 0.6 mm 1 mps 625 mmHg 68%
    16:00 +18°C° 1.1 mm 1 mps 624 mmHg 74%
    17:00 +16°C° 1.1 mm 1 mps 624 mmHg 80%
    18:00 +15°C° 1.1 mm 1 mps 624 mmHg 86%
    19:00 +13°C° 0.5 mm 1 mps 624 mmHg 89%
    20:00 +12°C° 0.5 mm 1 mps 624 mmHg 91%
    21:00 +11°C° 0.5 mm 1 mps 623 mmHg 94%
    22:00 +11°C° 0.2 mm 1 mps 624 mmHg 94%
    23:00 +11°C° 0.2 mm 1 mps 624 mmHg 94%

    Pasado mañana, 1 Junio, Lunes

    Tiempo Temperatura Precipitaciones Viento Presión Humedad
    00:00 +11°C° 0.2 mm 1 mps 624 mmHg 94%
    01:00 +11°C° 0.1 mm 1 mps 623 mmHg 93%
    02:00 +11°C° 0.1 mm 1 mps 623 mmHg 92%
    03:00 +11°C° 0.1 mm 1 mps 623 mmHg 91%
    04:00 +12°C° 0 mm 1 mps 624 mmHg 88%
    05:00 +12°C° 0 mm 1 mps 624 mmHg 85%
    06:00 +12°C° 0 mm 0 mps 624 mmHg 82%
    07:00 +14°C° 0.1 mm 1 mps 625 mmHg 76%
    08:00 +16°C° 0.1 mm 1 mps 626 mmHg 69%
    09:00 +18°C° 0.1 mm 1 mps 627 mmHg 63%
    10:00 +18°C° 1.1 mm 1 mps 626 mmHg 67%
    11:00 +18°C° 1.1 mm 1 mps 626 mmHg 71%
    12:00 +16°C° 1.1 mm 1 mps 626 mmHg 75%
    13:00 +16°C° 2 mm 1 mps 626 mmHg 78%
    14:00 +15°C° 2 mm 1 mps 625 mmHg 82%
    15:00 +14°C° 2 mm 1 mps 625 mmHg 85%
    16:00 +14°C° 0.9 mm 1 mps 625 mmHg 86%
    17:00 +14°C° 0.9 mm 1 mps 625 mmHg 87%
    18:00 +14°C° 0.9 mm 1 mps 625 mmHg 88%
    19:00 +13°C° 0 mm 1 mps 625 mmHg 89%
    20:00 +12°C° 0 mm 1 mps 625 mmHg 91%
    21:00 +11°C° 0 mm 1 mps 625 mmHg 92%
    22:00 +11°C° 0 mm 1 mps 624 mmHg 91%
    23:00 +10°C° 0 mm 1 mps 624 mmHg 90%

    2 Junio, Martes

    Tiempo Temperatura Precipitaciones Viento Presión Humedad
    00:00 +10°C° 0 mm 1 mps 624 mmHg 89%
    01:00 +10°C° 0 mm 1 mps 624 mmHg 88%
    02:00 +10°C° 0 mm 1 mps 624 mmHg 87%
    03:00 +10°C° 0 mm 1 mps 623 mmHg 86%
    04:00 +11°C° 0 mm 1 mps 624 mmHg 83%
    05:00 +12°C° 0 mm 1 mps 624 mmHg 81%
    06:00 +13°C° 0 mm 1 mps 625 mmHg 78%
    07:00 +15°C° 0.1 mm 1 mps 625 mmHg 73%
    08:00 +16°C° 0.1 mm 1 mps 626 mmHg 68%
    09:00 +19°C° 0.1 mm 1 mps 626 mmHg 63%
    10:00 +18°C° 0.4 mm 2 mps 626 mmHg 61%
    11:00 +18°C° 0.4 mm 2 mps 626 mmHg 59%
    12:00 +19°C° 0.4 mm 2 mps 626 mmHg 57%
    13:00 +19°C° 0.5 mm 2 mps 625 mmHg 58%
    14:00 +19°C° 0.5 mm 2 mps 625 mmHg 60%
    15:00 +18°C° 0.5 mm 2 mps 624 mmHg 61%
    16:00 +18°C° 0.2 mm 2 mps 624 mmHg 66%
    17:00 +18°C° 0.2 mm 1 mps 623 mmHg 70%
    18:00 +16°C° 0.2 mm 1 mps 623 mmHg 75%
    19:00 +15°C° 0.1 mm 1 mps 622 mmHg 78%
    20:00 +13°C° 0.1 mm 1 mps 622 mmHg 82%
    21:00 +12°C° 0.1 mm 1 mps 622 mmHg 85%
    22:00 +12°C° 0 mm 1 mps 621 mmHg 85%
    23:00 +11°C° 0 mm 1 mps 621 mmHg 85%

    3 Junio, Miércoles

    Tiempo Temperatura Precipitaciones Viento Presión Humedad
    00:00 +11°C° 0 mm 1 mps 621 mmHg 86%
    01:00 +11°C° 0.2 mm 1 mps 620 mmHg 86%
    02:00 +11°C° 0.2 mm 1 mps 620 mmHg 86%
    03:00 +11°C° 0.2 mm 1 mps 620 mmHg 87%
    04:00 +12°C° 0 mm 1 mps 620 mmHg 85%
    05:00 +13°C° 0 mm 1 mps 620 mmHg 84%
    06:00 +13°C° 0 mm 1 mps 620 mmHg 82%
    07:00 +14°C° 0.4 mm 1 mps 620 mmHg 77%
    08:00 +16°C° 0.4 mm 1 mps 621 mmHg 71%
    09:00 +17°C° 0.4 mm 2 mps 621 mmHg 66%
    10:00 +17°C° 0.7 mm 2 mps 621 mmHg 65%
    11:00 +17°C° 0.7 mm 2 mps 621 mmHg 63%
    12:00 +18°C° 0.7 mm 2 mps 620 mmHg 62%
    13:00 +18°C° 0.7 mm 2 mps 620 mmHg 62%
    14:00 +17°C° 0.7 mm 2 mps 620 mmHg 63%
    15:00 +17°C° 0.7 mm 2 mps 619 mmHg 63%
    16:00 +16°C° 0.7 mm 2 mps 619 mmHg 70%
    17:00 +15°C° 0.7 mm 1 mps 619 mmHg 77%
    18:00 +14°C° 0.7 mm 1 mps 618 mmHg 84%
    19:00 +13°C° 0.4 mm 1 mps 618 mmHg 86%
    20:00 +12°C° 0.4 mm 1 mps 618 mmHg 88%
    21:00 +10°C° 0.4 mm 0 mps 618 mmHg 89%
    22:00 +11°C° 0.1 mm 1 mps 618 mmHg 90%
    23:00 +11°C° 0.1 mm 1 mps 618 mmHg 90%

    4 Junio, Jueves

    Tiempo Temperatura Precipitaciones Viento Presión Humedad
    00:00 +10°C° 0.1 mm 1 mps 618 mmHg 91%
    01:00 +10°C° 0 mm 1 mps 618 mmHg 91%
    02:00 +10°C° 0 mm 1 mps 617 mmHg 91%
    03:00 +10°C° 0 mm 1 mps 617 mmHg 91%
    04:00 +10°C° 0 mm 1 mps 618 mmHg 89%
    05:00 +11°C° 0 mm 1 mps 618 mmHg 88%
    06:00 +12°C° 0 mm 1 mps 619 mmHg 86%
    07:00 +14°C° 0 mm 1 mps 619 mmHg 77%
    08:00 +16°C° 0 mm 2 mps 620 mmHg 67%
    09:00 +18°C° 0 mm 2 mps 621 mmHg 57%
    10:00 +18°C° 0 mm 2 mps 621 mmHg 56%
    11:00 +19°C° 0 mm 3 mps 621 mmHg 55%
    12:00 +19°C° 0 mm 3 mps 621 mmHg 54%
    13:00 +19°C° 0.2 mm 3 mps 621 mmHg 57%
    14:00 +19°C° 0.2 mm 3 mps 621 mmHg 60%
    15:00 +18°C° 0.2 mm 3 mps 620 mmHg 63%
    16:00 +17°C° 0.2 mm 3 mps 620 mmHg 68%
    17:00 +17°C° 0.2 mm 2 mps 620 mmHg 73%
    18:00 +16°C° 0.2 mm 2 mps 619 mmHg 77%
    19:00 +14°C° 0.2 mm 2 mps 619 mmHg 82%
    20:00 +13°C° 0.2 mm 2 mps 619 mmHg 86%
    21:00 +11°C° 0.2 mm 1 mps 619 mmHg 91%
    22:00 +11°C° 0.1 mm 1 mps 619 mmHg 91%
    23:00 +11°C° 0.1 mm 1 mps 619 mmHg 90%
    Mostrar más